Year,Month,Day,Hour,Minute,Value (Times are PST for temperature in C)
2009,08,20,00,00,18.80
2009,08,20,00,01,18.80
2009,08,20,00,02,18.80
2009,08,20,00,03,18.80
2009,08,20,00,04,18.80
2009,08,20,00,05,18.70
2009,08,20,00,06,18.70
2009,08,20,00,07,18.70
2009,08,20,00,08,18.70
2009,08,20,00,09,18.70
2009,08,20,00,10,18.70
2009,08,20,00,11,18.60
2009,08,20,00,12,18.60
2009,08,20,00,13,18.60
2009,08,20,00,14,18.60
2009,08,20,00,15,18.50
2009,08,20,00,16,18.50
2009,08,20,00,17,18.50
2009,08,20,00,18,18.50
2009,08,20,00,19,18.50
2009,08,20,00,20,18.40
2009,08,20,00,21,18.40
2009,08,20,00,22,18.40
2009,08,20,00,23,18.40
2009,08,20,00,24,18.40
2009,08,20,00,25,18.40
2009,08,20,00,26,18.50
2009,08,20,00,27,18.50
2009,08,20,00,28,18.50
2009,08,20,00,29,18.50
2009,08,20,00,30,18.60
2009,08,20,00,31,18.60
2009,08,20,00,32,18.60
2009,08,20,00,33,18.60
2009,08,20,00,34,18.60
2009,08,20,00,35,18.60
2009,08,20,00,36,18.60
2009,08,20,00,37,18.60
2009,08,20,00,38,18.60
2009,08,20,00,39,18.70
2009,08,20,00,40,18.70
2009,08,20,00,41,18.70
2009,08,20,00,42,18.70
2009,08,20,00,43,18.70
2009,08,20,00,44,18.70
2009,08,20,00,45,18.70
2009,08,20,00,46,18.80
2009,08,20,00,47,18.80
2009,08,20,00,48,18.80
2009,08,20,00,49,18.90
2009,08,20,00,50,18.90
2009,08,20,00,51,18.90
2009,08,20,00,52,18.90
2009,08,20,00,53,18.90
2009,08,20,00,54,18.90
2009,08,20,00,55,18.90
2009,08,20,00,56,18.90
2009,08,20,00,57,18.90
2009,08,20,00,58,18.90
2009,08,20,00,59,18.90
2009,08,20,01,00,18.90
2009,08,20,01,01,18.90
2009,08,20,01,02,18.90
2009,08,20,01,03,18.90
2009,08,20,01,04,18.90
2009,08,20,01,05,19.00
2009,08,20,01,06,19.10
2009,08,20,01,07,19.10
2009,08,20,01,08,19.10
2009,08,20,01,09,19.10
2009,08,20,01,10,19.10
2009,08,20,01,11,19.10
2009,08,20,01,12,19.10
2009,08,20,01,13,19.10
2009,08,20,01,14,19.10
2009,08,20,01,15,19.10
2009,08,20,01,16,18.90
2009,08,20,01,17,18.90
2009,08,20,01,18,18.90
2009,08,20,01,19,18.90
2009,08,20,01,20,18.90
2009,08,20,01,21,18.90
2009,08,20,01,22,18.90
2009,08,20,01,23,19.00
2009,08,20,01,24,19.10
2009,08,20,01,25,19.10
2009,08,20,01,26,19.10
2009,08,20,01,27,19.10
2009,08,20,01,28,19.20
2009,08,20,01,29,19.30
2009,08,20,01,30,19.40
2009,08,20,01,31,19.40
2009,08,20,01,32,19.40
2009,08,20,01,33,19.40
2009,08,20,01,34,19.40
2009,08,20,01,35,19.40
2009,08,20,01,36,19.30
2009,08,20,01,37,19.30
2009,08,20,01,38,19.30
2009,08,20,01,39,19.20
2009,08,20,01,40,19.20
2009,08,20,01,41,19.20
2009,08,20,01,42,19.20
2009,08,20,01,43,19.10
2009,08,20,01,44,19.10
2009,08,20,01,45,19.10
2009,08,20,01,46,19.10
2009,08,20,01,47,19.10
2009,08,20,01,48,19.10
2009,08,20,01,49,19.10
2009,08,20,01,50,19.10
2009,08,20,01,51,19.10
2009,08,20,01,52,19.10
2009,08,20,01,53,19.10
2009,08,20,01,54,19.10
2009,08,20,01,55,19.10
2009,08,20,01,56,19.10
2009,08,20,01,57,19.10
2009,08,20,01,58,19.10
2009,08,20,01,59,19.10
2009,08,20,02,00,19.10
2009,08,20,02,01,19.10
2009,08,20,02,02,19.10
2009,08,20,02,03,19.00
2009,08,20,02,04,18.90
2009,08,20,02,05,18.90
2009,08,20,02,06,18.90
2009,08,20,02,07,18.90
2009,08,20,02,08,18.90
2009,08,20,02,09,18.90
2009,08,20,02,10,18.90
2009,08,20,02,11,18.90
2009,08,20,02,12,18.90
2009,08,20,02,13,18.90
2009,08,20,02,14,19.00
2009,08,20,02,15,19.10
2009,08,20,02,16,19.10
2009,08,20,02,17,19.10
2009,08,20,02,18,19.00
2009,08,20,02,19,18.90
2009,08,20,02,20,18.90
2009,08,20,02,21,18.90
2009,08,20,02,22,18.80
2009,08,20,02,23,18.70
2009,08,20,02,24,18.60
2009,08,20,02,25,18.50
2009,08,20,02,26,18.50
2009,08,20,02,27,18.40
2009,08,20,02,28,18.40
2009,08,20,02,29,18.30
2009,08,20,02,30,18.20
2009,08,20,02,31,18.20
2009,08,20,02,32,18.20
2009,08,20,02,33,18.10
2009,08,20,02,34,18.10
2009,08,20,02,35,18.00
2009,08,20,02,36,17.90
2009,08,20,02,37,17.90
2009,08,20,02,38,17.90
2009,08,20,02,39,17.90
2009,08,20,02,40,17.80
2009,08,20,02,41,17.80
2009,08,20,02,42,17.70
2009,08,20,02,43,17.70
2009,08,20,02,44,17.60
2009,08,20,02,45,17.50
2009,08,20,02,46,17.40
2009,08,20,02,47,17.20
2009,08,20,02,48,16.90
2009,08,20,02,49,16.60
2009,08,20,02,50,16.40
2009,08,20,02,51,16.20
2009,08,20,02,52,15.90
2009,08,20,02,53,15.80
2009,08,20,02,54,15.70
2009,08,20,02,55,15.60
2009,08,20,02,56,15.40
2009,08,20,02,57,15.30
2009,08,20,02,58,15.20
2009,08,20,02,59,15.10
2009,08,20,03,00,15.10
2009,08,20,03,01,15.00
2009,08,20,03,02,15.00
2009,08,20,03,03,14.90
2009,08,20,03,04,14.90
2009,08,20,03,05,14.90
2009,08,20,03,06,14.90
2009,08,20,03,07,14.90
2009,08,20,03,08,14.80
2009,08,20,03,09,14.80
2009,08,20,03,10,14.80
2009,08,20,03,11,14.80
2009,08,20,03,12,14.80
2009,08,20,03,13,14.80
2009,08,20,03,14,14.80
2009,08,20,03,15,14.80
2009,08,20,03,16,14.80
2009,08,20,03,17,14.90
2009,08,20,03,18,14.90
2009,08,20,03,19,14.90
2009,08,20,03,20,15.00
2009,08,20,03,21,15.00
2009,08,20,03,22,15.10
2009,08,20,03,23,15.20
2009,08,20,03,24,15.30
2009,08,20,03,25,15.30
2009,08,20,03,26,15.30
2009,08,20,03,27,15.40
2009,08,20,03,28,15.50
2009,08,20,03,29,15.50
2009,08,20,03,30,15.50
2009,08,20,03,31,15.40
2009,08,20,03,32,15.40
2009,08,20,03,33,15.40
2009,08,20,03,34,15.40
2009,08,20,03,35,15.40
2009,08,20,03,36,15.40
2009,08,20,03,37,15.40
2009,08,20,03,38,15.40
2009,08,20,03,39,15.40
2009,08,20,03,40,15.40
2009,08,20,03,41,15.40
2009,08,20,03,42,15.40
2009,08,20,03,43,15.40
2009,08,20,03,44,15.40
2009,08,20,03,45,15.50
2009,08,20,03,46,15.50
2009,08,20,03,47,15.50
2009,08,20,03,48,15.50
2009,08,20,03,49,15.60
2009,08,20,03,50,15.60
2009,08,20,03,51,15.60
2009,08,20,03,52,15.60
2009,08,20,03,53,15.60
2009,08,20,03,54,15.70
2009,08,20,03,55,15.70
2009,08,20,03,56,15.70
2009,08,20,03,57,15.70
2009,08,20,03,58,15.80
2009,08,20,03,59,15.80
2009,08,20,04,00,15.80
2009,08,20,04,01,15.80
2009,08,20,04,02,15.80
2009,08,20,04,03,15.80
2009,08,20,04,04,15.90
2009,08,20,04,05,15.90
2009,08,20,04,06,15.90
2009,08,20,04,07,15.90
2009,08,20,04,08,15.90
2009,08,20,04,09,15.90
2009,08,20,04,10,15.90
2009,08,20,04,11,15.90
2009,08,20,04,12,15.90
2009,08,20,04,13,15.90
2009,08,20,04,14,15.90
2009,08,20,04,15,15.80
2009,08,20,04,16,15.80
2009,08,20,04,17,15.80
2009,08,20,04,18,15.80
2009,08,20,04,19,15.80
2009,08,20,04,20,15.80
2009,08,20,04,21,15.80
2009,08,20,04,22,15.80
2009,08,20,04,23,15.80
2009,08,20,04,24,15.80
2009,08,20,04,25,15.80
2009,08,20,04,26,15.80
2009,08,20,04,27,15.80
2009,08,20,04,28,15.80
2009,08,20,04,29,15.80
2009,08,20,04,30,15.80
2009,08,20,04,31,15.80
2009,08,20,04,32,15.80
2009,08,20,04,33,15.80
2009,08,20,04,34,15.80
2009,08,20,04,35,15.80
2009,08,20,04,36,15.80
2009,08,20,04,37,15.70
2009,08,20,04,38,15.70
2009,08,20,04,39,15.60
2009,08,20,04,40,15.50
2009,08,20,04,41,15.50
2009,08,20,04,42,15.50
2009,08,20,04,43,15.40
2009,08,20,04,44,15.40
2009,08,20,04,45,15.40
2009,08,20,04,46,15.40
2009,08,20,04,47,15.40
2009,08,20,04,48,15.40
2009,08,20,04,49,15.40
2009,08,20,04,50,15.50
2009,08,20,04,51,15.50
2009,08,20,04,52,15.40
2009,08,20,04,53,15.40
2009,08,20,04,54,15.50
2009,08,20,04,55,15.50
2009,08,20,04,56,15.50
2009,08,20,04,57,15.50
2009,08,20,04,58,15.50
2009,08,20,04,59,15.50
2009,08,20,05,00,15.50
2009,08,20,05,01,15.50
2009,08,20,05,02,15.50
2009,08,20,05,03,15.50
2009,08,20,05,04,15.50
2009,08,20,05,05,15.60
2009,08,20,05,06,15.60
2009,08,20,05,07,15.70
2009,08,20,05,08,15.70
2009,08,20,05,09,15.70
2009,08,20,05,10,15.70
2009,08,20,05,11,15.70
2009,08,20,05,12,15.70
2009,08,20,05,13,15.80
2009,08,20,05,14,15.80
2009,08,20,05,15,15.80
2009,08,20,05,16,15.80
2009,08,20,05,17,15.80
2009,08,20,05,18,15.80
2009,08,20,05,19,15.80
2009,08,20,05,20,15.80
2009,08,20,05,21,15.80
2009,08,20,05,22,15.80
2009,08,20,05,23,15.80
2009,08,20,05,24,15.80
2009,08,20,05,25,15.70
2009,08,20,05,26,15.70
2009,08,20,05,27,15.70
2009,08,20,05,28,15.70
2009,08,20,05,29,15.60
2009,08,20,05,30,15.60
2009,08,20,05,31,15.60
2009,08,20,05,32,15.60
2009,08,20,05,33,15.60
2009,08,20,05,34,15.50
2009,08,20,05,35,15.50
2009,08,20,05,36,15.50
2009,08,20,05,37,15.50
2009,08,20,05,38,15.50
2009,08,20,05,39,15.50
2009,08,20,05,40,15.50
2009,08,20,05,41,15.50
2009,08,20,05,42,15.50
2009,08,20,05,43,15.60
2009,08,20,05,44,15.60
2009,08,20,05,45,15.60
2009,08,20,05,46,15.60
2009,08,20,05,47,15.60
2009,08,20,05,48,15.60
2009,08,20,05,49,15.60
2009,08,20,05,50,15.60
2009,08,20,05,51,15.60
2009,08,20,05,52,15.70
2009,08,20,05,53,15.70
2009,08,20,05,54,15.70
2009,08,20,05,55,15.70
2009,08,20,05,56,15.70
2009,08,20,05,57,15.70
2009,08,20,05,58,15.70
2009,08,20,05,59,15.70
2009,08,20,06,00,15.60
2009,08,20,06,01,15.60
2009,08,20,06,02,15.60
2009,08,20,06,03,15.70
2009,08,20,06,04,15.70
2009,08,20,06,05,15.70
2009,08,20,06,06,15.70
2009,08,20,06,07,15.70
2009,08,20,06,08,15.70
2009,08,20,06,09,15.70
2009,08,20,06,10,15.60
2009,08,20,06,11,15.60
2009,08,20,06,12,15.60
2009,08,20,06,13,15.60
2009,08,20,06,14,15.60
2009,08,20,06,15,15.60
2009,08,20,06,16,15.60
2009,08,20,06,17,15.60
2009,08,20,06,18,15.60
2009,08,20,06,19,15.60
2009,08,20,06,20,15.60
2009,08,20,06,21,15.60
2009,08,20,06,22,15.60
2009,08,20,06,23,15.60
2009,08,20,06,24,15.60
2009,08,20,06,25,15.60
2009,08,20,06,26,15.60
2009,08,20,06,27,15.60
2009,08,20,06,28,15.50
2009,08,20,06,29,15.50
2009,08,20,06,30,15.50
2009,08,20,06,31,15.50
2009,08,20,06,32,15.50
2009,08,20,06,33,15.50
2009,08,20,06,34,15.40
2009,08,20,06,35,15.40
2009,08,20,06,36,15.30
2009,08,20,06,37,15.10
2009,08,20,06,38,15.00
2009,08,20,06,39,14.80
2009,08,20,06,40,14.70
2009,08,20,06,41,14.60
2009,08,20,06,42,14.50
2009,08,20,06,43,14.50
2009,08,20,06,44,14.50
2009,08,20,06,45,14.50
2009,08,20,06,46,14.50
2009,08,20,06,47,14.50
2009,08,20,06,48,14.50
2009,08,20,06,49,14.50
2009,08,20,06,50,14.50
2009,08,20,06,51,14.50
2009,08,20,06,52,14.40
2009,08,20,06,53,14.50
2009,08,20,06,54,14.50
2009,08,20,06,55,14.50
2009,08,20,06,56,14.60
2009,08,20,06,57,14.60
2009,08,20,06,58,14.70
2009,08,20,06,59,14.70
2009,08,20,07,00,14.80
2009,08,20,07,01,14.90
2009,08,20,07,02,15.00
2009,08,20,07,03,15.10
2009,08,20,07,04,15.10
2009,08,20,07,05,15.20
2009,08,20,07,06,15.30
2009,08,20,07,07,15.30
2009,08,20,07,08,15.40
2009,08,20,07,09,15.50
2009,08,20,07,10,15.60
2009,08,20,07,11,15.70
2009,08,20,07,12,15.80
2009,08,20,07,13,15.80
2009,08,20,07,14,15.90
2009,08,20,07,15,16.00
2009,08,20,07,16,16.10
2009,08,20,07,17,16.10
2009,08,20,07,18,16.20
2009,08,20,07,19,16.30
2009,08,20,07,20,16.30
2009,08,20,07,21,16.40
2009,08,20,07,22,16.40
2009,08,20,07,23,16.50
2009,08,20,07,24,16.60
2009,08,20,07,25,16.60
2009,08,20,07,26,16.70
2009,08,20,07,27,16.80
2009,08,20,07,28,16.90
2009,08,20,07,29,17.00
2009,08,20,07,30,17.00
2009,08,20,07,31,17.10
2009,08,20,07,32,17.20
2009,08,20,07,33,17.30
2009,08,20,07,34,17.40
2009,08,20,07,35,17.50
2009,08,20,07,36,17.60
2009,08,20,07,37,17.60
2009,08,20,07,38,17.70
2009,08,20,07,39,17.70
2009,08,20,07,40,17.80
2009,08,20,07,41,17.80
2009,08,20,07,42,17.80
2009,08,20,07,43,17.90
2009,08,20,07,44,17.90
2009,08,20,07,45,17.90
2009,08,20,07,46,18.00
2009,08,20,07,47,18.10
2009,08,20,07,48,18.10
2009,08,20,07,49,18.20
2009,08,20,07,50,18.20
2009,08,20,07,51,18.20
2009,08,20,07,52,18.30
2009,08,20,07,53,18.30
2009,08,20,07,54,18.40
2009,08,20,07,55,18.40
2009,08,20,07,56,18.50
2009,08,20,07,57,18.60
2009,08,20,07,58,18.70
2009,08,20,07,59,18.80
2009,08,20,08,00,19.00
2009,08,20,08,01,19.10
2009,08,20,08,02,19.30
2009,08,20,08,03,19.30
2009,08,20,08,04,19.40
2009,08,20,08,05,19.40
2009,08,20,08,06,19.40
2009,08,20,08,07,19.30
2009,08,20,08,08,19.20
2009,08,20,08,09,19.10
2009,08,20,08,10,19.10
2009,08,20,08,11,19.00
2009,08,20,08,12,18.90
2009,08,20,08,13,18.80
2009,08,20,08,14,18.80
2009,08,20,08,15,18.80
2009,08,20,08,16,18.90
2009,08,20,08,17,18.90
2009,08,20,08,18,18.90
2009,08,20,08,19,19.10
2009,08,20,08,20,19.10
2009,08,20,08,21,19.20
2009,08,20,08,22,19.30
2009,08,20,08,23,19.40
2009,08,20,08,24,19.50
2009,08,20,08,25,19.60
2009,08,20,08,26,19.70
2009,08,20,08,27,19.80
2009,08,20,08,28,19.90
2009,08,20,08,29,20.00
2009,08,20,08,30,20.10
2009,08,20,08,31,20.20
2009,08,20,08,32,20.20
2009,08,20,08,33,20.30
2009,08,20,08,34,20.40
2009,08,20,08,35,20.40
2009,08,20,08,36,20.40
2009,08,20,08,37,20.40
2009,08,20,08,38,20.50
2009,08,20,08,39,20.50
2009,08,20,08,40,20.50
2009,08,20,08,41,20.40
2009,08,20,08,42,20.50
2009,08,20,08,43,20.50
2009,08,20,08,44,20.50
2009,08,20,08,45,20.50
2009,08,20,08,46,20.50
2009,08,20,08,47,20.60
2009,08,20,08,48,20.70
2009,08,20,08,49,20.80
2009,08,20,08,50,21.00
2009,08,20,08,51,21.20
2009,08,20,08,52,21.30
2009,08,20,08,53,21.50
2009,08,20,08,54,21.60
2009,08,20,08,55,21.80
2009,08,20,08,56,21.90
2009,08,20,08,57,22.00
2009,08,20,08,58,22.00
2009,08,20,08,59,22.00
2009,08,20,09,00,21.90
2009,08,20,09,01,21.80
2009,08,20,09,02,21.60
2009,08,20,09,03,21.50
2009,08,20,09,04,21.30
2009,08,20,09,05,21.20
2009,08,20,09,06,21.10
2009,08,20,09,07,21.10
2009,08,20,09,08,21.10
2009,08,20,09,09,21.00
2009,08,20,09,10,20.90
2009,08,20,09,11,20.90
2009,08,20,09,12,20.80
2009,08,20,09,13,20.70
2009,08,20,09,14,20.70
2009,08,20,09,15,20.80
2009,08,20,09,16,20.90
2009,08,20,09,17,21.00
2009,08,20,09,18,21.20
2009,08,20,09,19,21.30
2009,08,20,09,20,21.20
2009,08,20,09,21,21.30
2009,08,20,09,22,21.30
2009,08,20,09,23,21.30
2009,08,20,09,24,21.40
2009,08,20,09,25,21.50
2009,08,20,09,26,21.60
2009,08,20,09,27,21.80
2009,08,20,09,28,21.90
2009,08,20,09,29,22.10
2009,08,20,09,30,22.20
2009,08,20,09,31,22.20
2009,08,20,09,32,22.20
2009,08,20,09,33,22.30
2009,08,20,09,34,22.30
2009,08,20,09,35,22.40
2009,08,20,09,36,22.50
2009,08,20,09,37,22.60
2009,08,20,09,38,22.60
2009,08,20,09,39,22.40
2009,08,20,09,40,22.30
2009,08,20,09,41,22.20
2009,08,20,09,42,22.20
2009,08,20,09,43,22.10
2009,08,20,09,44,22.10
2009,08,20,09,45,22.20
2009,08,20,09,46,22.10
2009,08,20,09,47,22.00
2009,08,20,09,48,21.90
2009,08,20,09,49,21.90
2009,08,20,09,50,21.90
2009,08,20,09,51,21.90
2009,08,20,09,52,22.00
2009,08,20,09,53,22.00
2009,08,20,09,54,22.20
2009,08,20,09,55,22.20
2009,08,20,09,56,22.10
2009,08,20,09,57,22.00
2009,08,20,09,58,22.00
2009,08,20,09,59,22.00
2009,08,20,10,00,22.00
2009,08,20,10,01,22.10
2009,08,20,10,02,22.20
2009,08,20,10,03,22.30
2009,08,20,10,04,22.40
2009,08,20,10,05,22.60
2009,08,20,10,06,22.70
2009,08,20,10,07,22.80
2009,08,20,10,08,22.80
2009,08,20,10,09,22.70
2009,08,20,10,10,22.80
2009,08,20,10,11,22.80
2009,08,20,10,12,22.80
2009,08,20,10,13,22.70
2009,08,20,10,14,22.60
2009,08,20,10,15,22.40
2009,08,20,10,16,22.30
2009,08,20,10,17,22.30
2009,08,20,10,18,22.30
2009,08,20,10,19,22.20
2009,08,20,10,20,22.30
2009,08,20,10,21,22.40
2009,08,20,10,22,22.50
2009,08,20,10,23,22.60
2009,08,20,10,24,22.70
2009,08,20,10,25,22.60
2009,08,20,10,26,22.60
2009,08,20,10,27,22.60
2009,08,20,10,28,22.60
2009,08,20,10,29,22.60
2009,08,20,10,30,22.60
2009,08,20,10,31,22.50
2009,08,20,10,32,22.30
2009,08,20,10,33,22.10
2009,08,20,10,34,22.10
2009,08,20,10,35,22.10
2009,08,20,10,36,22.20
2009,08,20,10,37,22.20
2009,08,20,10,38,22.20
2009,08,20,10,39,22.10
2009,08,20,10,40,22.10
2009,08,20,10,41,22.10
2009,08,20,10,42,22.10
2009,08,20,10,43,22.00
2009,08,20,10,44,22.10
2009,08,20,10,45,22.10
2009,08,20,10,46,22.20
2009,08,20,10,47,22.20
2009,08,20,10,48,22.20
2009,08,20,10,49,22.10
2009,08,20,10,50,22.10
2009,08,20,10,51,22.10
2009,08,20,10,52,22.20
2009,08,20,10,53,22.30
2009,08,20,10,54,22.40
2009,08,20,10,55,22.50
2009,08,20,10,56,22.60
2009,08,20,10,57,22.70
2009,08,20,10,58,22.70
2009,08,20,10,59,22.80
2009,08,20,11,00,22.90
2009,08,20,11,01,22.90
2009,08,20,11,02,22.90
2009,08,20,11,03,22.80
2009,08,20,11,04,22.70
2009,08,20,11,05,22.60
2009,08,20,11,06,22.60
2009,08,20,11,07,22.70
2009,08,20,11,08,22.70
2009,08,20,11,09,22.80
2009,08,20,11,10,22.80
2009,08,20,11,11,22.70
2009,08,20,11,12,22.60
2009,08,20,11,13,22.60
2009,08,20,11,14,22.60
2009,08,20,11,15,22.60
2009,08,20,11,16,22.70
2009,08,20,11,17,22.70
2009,08,20,11,18,22.80
2009,08,20,11,19,22.90
2009,08,20,11,20,22.90
2009,08,20,11,21,23.00
2009,08,20,11,22,23.10
2009,08,20,11,23,23.20
2009,08,20,11,24,23.30
2009,08,20,11,25,23.40
2009,08,20,11,26,23.40
2009,08,20,11,27,23.50
2009,08,20,11,28,23.60
2009,08,20,11,29,23.70
2009,08,20,11,30,23.70
2009,08,20,11,31,23.90
2009,08,20,11,32,24.10
2009,08,20,11,33,24.20
2009,08,20,11,34,24.30
2009,08,20,11,35,24.30
2009,08,20,11,36,24.30
2009,08,20,11,37,24.30
2009,08,20,11,38,24.30
2009,08,20,11,39,24.30
2009,08,20,11,40,24.30
2009,08,20,11,41,24.30
2009,08,20,11,42,24.30
2009,08,20,11,43,24.30
2009,08,20,11,44,24.30
2009,08,20,11,45,24.40
2009,08,20,11,46,24.50
2009,08,20,11,47,24.50
2009,08,20,11,48,24.60
2009,08,20,11,49,24.80
2009,08,20,11,50,24.90
2009,08,20,11,51,24.90
2009,08,20,11,52,24.80
2009,08,20,11,53,24.60
2009,08,20,11,54,24.60
2009,08,20,11,55,24.70
2009,08,20,11,56,24.80
2009,08,20,11,57,24.90
2009,08,20,11,58,25.00
2009,08,20,11,59,25.00
2009,08,20,12,00,24.90
2009,08,20,12,01,24.90
2009,08,20,12,02,24.90
2009,08,20,12,03,24.80
2009,08,20,12,04,24.80
2009,08,20,12,05,24.80
2009,08,20,12,06,24.90
2009,08,20,12,07,25.00
2009,08,20,12,08,25.10
2009,08,20,12,09,25.00
2009,08,20,12,10,24.90
2009,08,20,12,11,24.90
2009,08,20,12,12,24.90
2009,08,20,12,13,24.90
2009,08,20,12,14,24.80
2009,08,20,12,15,24.70
2009,08,20,12,16,24.70
2009,08,20,12,17,24.70
2009,08,20,12,18,24.60
2009,08,20,12,19,24.60
2009,08,20,12,20,24.70
2009,08,20,12,21,24.80
2009,08,20,12,22,24.80
2009,08,20,12,23,24.80
2009,08,20,12,24,24.90
2009,08,20,12,25,24.90
2009,08,20,12,26,25.10
2009,08,20,12,27,25.20
2009,08,20,12,28,25.30
2009,08,20,12,29,25.40
2009,08,20,12,30,25.50
2009,08,20,12,31,25.60
2009,08,20,12,32,25.70
2009,08,20,12,33,25.80
2009,08,20,12,34,25.80
2009,08,20,12,35,25.80
2009,08,20,12,36,25.80
2009,08,20,12,37,25.80
2009,08,20,12,38,25.80
2009,08,20,12,39,25.70
2009,08,20,12,40,25.70
2009,08,20,12,41,25.60
2009,08,20,12,42,25.40
2009,08,20,12,43,25.30
2009,08,20,12,44,25.20
2009,08,20,12,45,25.30
2009,08,20,12,46,25.30
2009,08,20,12,47,25.20
2009,08,20,12,48,25.10
2009,08,20,12,49,25.10
2009,08,20,12,50,25.20
2009,08,20,12,51,25.20
2009,08,20,12,52,25.30
2009,08,20,12,53,25.30
2009,08,20,12,54,25.10
2009,08,20,12,55,24.90
2009,08,20,12,56,24.80
2009,08,20,12,57,24.80
2009,08,20,12,58,24.80
2009,08,20,12,59,24.90
2009,08,20,13,00,24.90
2009,08,20,13,01,25.00
2009,08,20,13,02,25.10
2009,08,20,13,03,25.10
2009,08,20,13,04,25.10
2009,08,20,13,05,25.10
2009,08,20,13,06,25.10
2009,08,20,13,07,25.10
2009,08,20,13,08,25.10
2009,08,20,13,09,25.00
2009,08,20,13,10,25.00
2009,08,20,13,11,25.00
2009,08,20,13,12,25.10
2009,08,20,13,13,25.10
2009,08,20,13,14,25.20
2009,08,20,13,15,25.10
2009,08,20,13,16,25.00
2009,08,20,13,17,24.90
2009,08,20,13,18,24.90
2009,08,20,13,19,25.00
2009,08,20,13,20,25.00
2009,08,20,13,21,25.10
2009,08,20,13,22,25.10
2009,08,20,13,23,25.10
2009,08,20,13,24,25.10
2009,08,20,13,25,25.10
2009,08,20,13,26,25.00
2009,08,20,13,27,25.10
2009,08,20,13,28,25.20
2009,08,20,13,29,25.30
2009,08,20,13,30,25.30
2009,08,20,13,31,25.40
2009,08,20,13,32,25.50
2009,08,20,13,33,25.60
2009,08,20,13,34,25.60
2009,08,20,13,35,25.70
2009,08,20,13,36,25.80
2009,08,20,13,37,25.80
2009,08,20,13,38,25.90
2009,08,20,13,39,26.00
2009,08,20,13,40,26.00
2009,08,20,13,41,26.00
2009,08,20,13,42,25.80
2009,08,20,13,43,25.50
2009,08,20,13,44,25.40
2009,08,20,13,45,25.40
2009,08,20,13,46,25.30
2009,08,20,13,47,25.10
2009,08,20,13,48,25.10
2009,08,20,13,49,25.00
2009,08,20,13,50,25.00
2009,08,20,13,51,25.10
2009,08,20,13,52,25.10
2009,08,20,13,53,25.20
2009,08,20,13,54,25.20
2009,08,20,13,55,25.30
2009,08,20,13,56,25.40
2009,08,20,13,57,25.50
2009,08,20,13,58,25.60
2009,08,20,13,59,25.70
2009,08,20,14,00,25.70
2009,08,20,14,01,25.70
2009,08,20,14,02,25.60
2009,08,20,14,03,25.50
2009,08,20,14,04,25.50
2009,08,20,14,05,25.50
2009,08,20,14,06,25.60
2009,08,20,14,07,25.60
2009,08,20,14,08,25.70
2009,08,20,14,09,25.70
2009,08,20,14,10,25.80
2009,08,20,14,11,25.90
2009,08,20,14,12,25.90
2009,08,20,14,13,25.90
2009,08,20,14,14,26.10
2009,08,20,14,15,26.20
2009,08,20,14,16,26.40
2009,08,20,14,17,26.50
2009,08,20,14,18,26.60
2009,08,20,14,19,26.60
2009,08,20,14,20,26.50
2009,08,20,14,21,26.20
2009,08,20,14,22,26.10
2009,08,20,14,23,25.90
2009,08,20,14,24,25.70
2009,08,20,14,25,25.60
2009,08,20,14,26,25.40
2009,08,20,14,27,25.30
2009,08,20,14,28,25.20
2009,08,20,14,29,25.20
2009,08,20,14,30,25.20
2009,08,20,14,31,25.10
2009,08,20,14,32,25.00
2009,08,20,14,33,25.10
2009,08,20,14,34,25.20
2009,08,20,14,35,25.10
2009,08,20,14,36,25.10
2009,08,20,14,37,25.10
2009,08,20,14,38,25.10
2009,08,20,14,39,25.10
2009,08,20,14,40,25.10
2009,08,20,14,41,25.10
2009,08,20,14,42,25.20
2009,08,20,14,43,25.20
2009,08,20,14,44,25.20
2009,08,20,14,45,25.20
2009,08,20,14,46,25.20
2009,08,20,14,47,25.40
2009,08,20,14,48,25.40
2009,08,20,14,49,25.40
2009,08,20,14,50,25.40
2009,08,20,14,51,25.40
2009,08,20,14,52,25.40
2009,08,20,14,53,25.40
2009,08,20,14,54,25.40
2009,08,20,14,55,25.40
2009,08,20,14,56,25.40
2009,08,20,14,57,25.20
2009,08,20,14,58,25.20
2009,08,20,14,59,25.20
2009,08,20,15,00,25.20
2009,08,20,15,01,25.30
2009,08,20,15,02,25.40
2009,08,20,15,03,25.50
2009,08,20,15,04,25.60
2009,08,20,15,05,25.60
2009,08,20,15,06,25.60
2009,08,20,15,07,25.70
2009,08,20,15,08,25.70
2009,08,20,15,09,25.60
2009,08,20,15,10,25.40
2009,08,20,15,11,25.30
2009,08,20,15,12,25.30
2009,08,20,15,13,25.30
2009,08,20,15,14,25.40
2009,08,20,15,15,25.30
2009,08,20,15,16,25.30
2009,08,20,15,17,25.20
2009,08,20,15,18,24.90
2009,08,20,15,19,24.80
2009,08,20,15,20,24.70
2009,08,20,15,21,24.50
2009,08,20,15,22,24.40
2009,08,20,15,23,24.50
2009,08,20,15,24,24.50
2009,08,20,15,25,24.60
2009,08,20,15,26,24.60
2009,08,20,15,27,24.70
2009,08,20,15,28,24.80
2009,08,20,15,29,24.80
2009,08,20,15,30,24.80
2009,08,20,15,31,24.90
2009,08,20,15,32,24.90
2009,08,20,15,33,24.90
2009,08,20,15,34,24.80
2009,08,20,15,35,24.80
2009,08,20,15,36,24.70
2009,08,20,15,37,24.70
2009,08,20,15,38,24.60
2009,08,20,15,39,24.50
2009,08,20,15,40,24.40
2009,08,20,15,41,24.30
2009,08,20,15,42,24.30
2009,08,20,15,43,24.30
2009,08,20,15,44,24.30
2009,08,20,15,45,24.30
2009,08,20,15,46,24.20
2009,08,20,15,47,24.20
2009,08,20,15,48,24.20
2009,08,20,15,49,24.20
2009,08,20,15,50,24.30
2009,08,20,15,51,24.40
2009,08,20,15,52,24.50
2009,08,20,15,53,24.50
2009,08,20,15,54,24.60
2009,08,20,15,55,24.50
2009,08,20,15,56,24.50
2009,08,20,15,57,24.50
2009,08,20,15,58,24.50
2009,08,20,15,59,24.50
2009,08,20,16,00,24.50
2009,08,20,16,01,24.40
2009,08,20,16,02,24.40
2009,08,20,16,03,24.40
2009,08,20,16,04,24.30
2009,08,20,16,05,24.30
2009,08,20,16,06,24.30
2009,08,20,16,07,24.40
2009,08,20,16,08,24.40
2009,08,20,16,09,24.40
2009,08,20,16,10,24.30
2009,08,20,16,11,24.30
2009,08,20,16,12,24.30
2009,08,20,16,13,24.30
2009,08,20,16,14,24.40
2009,08,20,16,15,24.40
2009,08,20,16,16,24.40
2009,08,20,16,17,24.40
2009,08,20,16,18,24.40
2009,08,20,16,19,24.30
2009,08,20,16,20,24.20
2009,08,20,16,21,24.10
2009,08,20,16,22,24.10
2009,08,20,16,23,24.00
2009,08,20,16,24,23.90
2009,08,20,16,25,23.90
2009,08,20,16,26,23.80
2009,08,20,16,27,23.70
2009,08,20,16,28,23.70
2009,08,20,16,29,23.70
2009,08,20,16,30,23.70
2009,08,20,16,31,23.80
2009,08,20,16,32,23.80
2009,08,20,16,33,23.90
2009,08,20,16,34,23.90
2009,08,20,16,35,23.90
2009,08,20,16,36,23.90
2009,08,20,16,37,24.00
2009,08,20,16,38,23.90
2009,08,20,16,39,24.00
2009,08,20,16,40,24.10
2009,08,20,16,41,24.10
2009,08,20,16,42,24.00
2009,08,20,16,43,23.90
2009,08,20,16,44,23.80
2009,08,20,16,45,23.70
2009,08,20,16,46,23.70
2009,08,20,16,47,23.70
2009,08,20,16,48,23.70
2009,08,20,16,49,23.70
2009,08,20,16,50,23.70
2009,08,20,16,51,23.50
2009,08,20,16,52,23.40
2009,08,20,16,53,23.30
2009,08,20,16,54,23.30
2009,08,20,16,55,23.30
2009,08,20,16,56,23.30
2009,08,20,16,57,23.20
2009,08,20,16,58,23.20
2009,08,20,16,59,23.10
2009,08,20,17,00,23.10
2009,08,20,17,01,23.10
2009,08,20,17,02,23.10
2009,08,20,17,03,23.10
2009,08,20,17,04,23.10
2009,08,20,17,05,23.10
2009,08,20,17,06,23.00
2009,08,20,17,07,22.90
2009,08,20,17,08,22.90
2009,08,20,17,09,22.90
2009,08,20,17,10,22.90
2009,08,20,17,11,22.90
2009,08,20,17,12,22.90
2009,08,20,17,13,22.80
2009,08,20,17,14,22.80
2009,08,20,17,15,22.70
2009,08,20,17,16,22.70
2009,08,20,17,17,22.70
2009,08,20,17,18,22.70
2009,08,20,17,19,22.80